Dewpoint
57 57 57 57 57 57 57 57 57 57 57 57 57 57 57 57 56 56 57 58 58 58 58 58 58 58 58 58 59 59 59 59 59 59 58 58 58 58 57 57 57 57
57 57 57 57 57 57 57 57 57 57 57 57 57 57 57 56 56 56 56 57 57 57 58 58 58 58 58 58 58 59 59 59 58 59 58 58 58 58 58 57 57 57
57 57 57 57 57 57 57 57 57 57 57 57 57 57 57 56 56 56 56 56 57 57 57 57 57 57 57 58 58 58 58 58 58 58 58 58 58 58 58 58 57 57
55 56 57 57 57 57 56 56 56 57 57 56 56 56 56 56 56 56 56 54 56 56 56 57 57 57 57 57 58 58 58 58 58 58 58 58 58 58 58 58 57 57
54 55 55 56 56 56 56 56 56 56 56 56 56 55 55 55 55 55 55 55 56 56 56 56 56 56 56 57 57 58 58 58 58 58 58 58 58 58 58 58 57 57
50 52 53 54 55 55 55 55 55 55 55 54 55 54 55 55 55 55 55 55 55 55 55 55 55 56 56 56 57 58 58 58 58 58 58 57 58 58 58 58 57 57
49 49 50 51 51 52 53 54 54 53 54 55 53 54 54 54 55 55 55 55 55 54 55 55 55 55 55 56 56 57 57 57 57 57 57 57 57 57 57 57 56 56
47 46 48 48 48 49 50 51 52 52 52 52 53 54 53 54 54 54 54 54 54 54 54 54 55 55 55 55 55 56 56 57 57 56 56 56 56 56 56 56 56 56
44 45 45 45 46 47 47 48 49 49 49 51 51 52 51 53 53 53 53 53 53 53 53 53 53 54 54 54 55 55 55 55 56 55 55 54 54 54 54 54 54 54
41 41 41 42 43 44 44 45 47 48 47 49 50 49 50 50 51 52 51 51 51 51 51 51 51 51 51 52 54 54 54 55 54 55 55 54 54 53 53 52 53 53
37 37 40 39 42 42 43 42 42 44 44 47 48 48 49 46 46 46 49 49 51 51 50 50 50 51 52 51 52 52 53 53 53 52 52 53 53 52 49 51 51 51
36 36 37 38 40 40 40 41 41 41 43 44 46 49 46 45 47 44 48 49 48 49 48 48 48 47 48 49 49 48 48 50 50 50 50 50 50 50 51 51 51 51
36 37 37 37 36 36 37 38 39 39 41 42 40 42 43 42 41 43 41 43 45 45 47 47 46 44 47 47 47 47 49 48 48 48 48 49 49 50 50 51 51 51
36 35 36 36 35 35 36 37 36 37 39 38 39 42 42 43 43 45 40 41 44 44 45 44 44 43 45 46 47 48 47 46 47 47 48 48 49 49 49 50 50 50
35 35 36 35 35 35 34 34 34 34 34 34 35 36 38 38 40 42 41 41 40 41 41 42 45 45 45 44 46 47 49 49 49 48 47 47 46 46 46 47 47 46
36 36 35 34 35 34 34 34 34 33 33 33 33 33 33 33 35 35 37 39 39 38 38 40 39 41 39 41 42 45 46 46 45 43 42 42 42 42 42 41 39 38
35 35 34 35 34 34 34 34 34 33 33 33 32 32 33 32 33 34 34 34 34 35 35 33 34 36 37 40 40 40 40 42 41 40 40 39 38 39 38 37 37 37
35 34 35 34 34 35 34 33 33 33 33 32 32 32 31 31 32 32 32 32 32 32 32 32 32 35 38 39 40 40 39 38 39 39 40 38 37 37 37 38 38 38
34 34 34 33 33 33 32 32 32 32 32 32 32 31 31 32 31 31 31 31 32 32 31 31 32 35 37 38 39 39 40 37 35 37 37 36 36 36 37 37 37 37
34 33 33 32 31 31 31 32 32 31 30 30 30 31 31 31 31 31 30 31 31 31 31 31 31 34 36 37 38 38 39 38 32 33 34 34 35 35 36 36 37 37
33 33 32 31 31 31 31 31 31 30 30 30 30 30 31 31 30 30 30 30 30 30 30 30 30 34 36 37 37 38 38 38 31 31 32 32 33 35 36 36 36 37
33 32 31 30 30 31 31 31 30 30 30 28 28 28 28 29 29 29 30 30 29 29 30 30 30 34 35 36 36 37 38 32 30 31 31 31 33 34 34 35 36 36
33 32 31 31 30 31 30 30 30 29 28 27 29 28 28 29 29 29 28 29 28 29 29 29 29 31 34 35 36 36 36 29 30 31 32 32 33 34 34 35 35 35
33 32 31 31 31 31 31 30 29 28 28 25 29 29 28 27 27 27 27 27 28 28 28 28 29 29 33 35 35 36 36 30 30 31 32 32 33 33 34 34 34 33
32 32 31 31 31 30 30 30 29 29 27 26 27 27 27 26 24 27 26 26 26 27 27 28 28 29 32 34 36 36 33 30 30 32 31 32 32 32 32 31 31 30
31 30 30 31 30 29 29 30 29 28 28 27 25 27 26 26 26 26 27 27 27 27 28 28 28 28 29 34 35 36 36 28 29 31 31 30 29 28 27 28 28 29